This is the latest recevied weather packets stored in our database for station/object SQ5LTL-2. If no packets are shown the sender has not sent any weather packets the latest 10 day(s).
| Time | Temp. | Humidity | Pressure | Rain* | Wind** | Luminosity | Snow |
|---|---|---|---|---|---|---|---|
| 1778067635 | 25.56° C | 39% | 1006.6 hPa | 0 mm | - | 289 W/m² | - |
| 1778067333 | 25.56° C | 39% | 1006.6 hPa | 0 mm | - | 340 W/m² | - |
| 1778067032 | 25.56° C | 38% | 1006.6 hPa | 0 mm | - | 511 W/m² | - |
| 1778066730 | 25.56° C | 38% | 1006.5 hPa | 0 mm | - | 544 W/m² | - |
| 1778066429 | 25.56° C | 37% | 1006.6 hPa | 0 mm | - | 549 W/m² | - |
| 1778066127 | 26.11° C | 37% | 1006.6 hPa | 0 mm | - | 582 W/m² | - |
| 1778065826 | 25.56° C | 37% | 1006.5 hPa | 0 mm | - | 616 W/m² | - |
| 1778065524 | 26.11° C | 37% | 1006.6 hPa | 0 mm | - | 382 W/m² | - |
| 1778065223 | 25.56° C | 37% | 1006.5 hPa | 0 mm | - | 587 W/m² | - |
| 1778064922 | 25.56° C | 37% | 1006.6 hPa | 0 mm | - | 612 W/m² | - |
| 1778064620 | 25.56° C | 37% | 1006.5 hPa | 0 mm | - | 583 W/m² | - |
| 1778064318 | 25° C | 38% | 1006.5 hPa | 0 mm | - | 589 W/m² | - |
| 1778064017 | 25° C | 38% | 1006.7 hPa | 0 mm | - | 339 W/m² | - |
| 1778063736 | 25.56° C | 37% | 1006.7 hPa | 0 mm | - | 454 W/m² | - |
| 1778063434 | 25° C | 37% | 1006.7 hPa | 0 mm | - | 510 W/m² | - |
| 1778063132 | 25.56° C | 37% | 1006.6 hPa | 0 mm | - | 454 W/m² | - |
| 1778062831 | 25° C | 37% | 1006.7 hPa | 0 mm | - | 547 W/m² | - |
| 1778062529 | 25° C | 37% | 1006.8 hPa | 0 mm | - | 589 W/m² | - |
| 1778062228 | 25° C | 37% | 1006.7 hPa | 0 mm | - | 569 W/m² | - |
| 1778061926 | 25° C | 37% | 1006.7 hPa | 0 mm | - | 579 W/m² | - |
| 1778061626 | 24.44° C | 37% | 1006.9 hPa | 0 mm | - | 578 W/m² | - |
| 1778061324 | 25° C | 36% | 1006.9 hPa | 0 mm | - | 576 W/m² | - |
| 1778061023 | 25° C | 36% | 1006.9 hPa | 0 mm | - | 573 W/m² | - |
| 1778060720 | 25° C | 36% | 1006.8 hPa | 0 mm | - | 575 W/m² | - |
| 1778060419 | 25° C | 36% | 1006.7 hPa | 0 mm | - | 580 W/m² | - |
* Rain latest hour (hover to see other rain measurements)
** Current wind speed in m/s (hover to see current wind gust speed)